User: anonymous   Login
Location: Santa Maria di Sala
(45.5070°N, 12.0300°E)
Time: 22:02:50
(UTC+01:00)
Language:

AO-73 - Orbit

View from above orbital plane
View from above orbital plane
View from above satellite
View from above satellite

Ground track
Ground track

The orbit data is extracted from the following two-line orbital elements,

1 39444U 13066AE  24057.88372104  .00006734  00000-0  68591-3 0  9993
2 39444  97.7073  19.4536 0050852 148.7938 211.6316 14.90056140553527
Epoch (UTC): 26 February 2024 21:12:33
Eccentricity: 0.0050852
inclination: 97.7073°
perigee height: 562 km
apogee height: 633 km
right ascension of ascending node: 19.4536°
argument of perigee: 148.7938°
revolutions per day: 14.90056140
mean anomaly at epoch: 211.6316°
orbit number at epoch: 55352

The dashed part of the orbit path shows where the satellite is in the earth's shadow,  

DLR